AXI750 KSBN-KORL

Flight info

Callsign AXI750
Flight time 1h 58m
Altitude 45000
Route IIU VXV MJKAL JAFAR3
Aircraft C750/M-SBDE3FGHRWXY/S

Departure

Time 2026-04-19 01:32
Airport South Bend International Airport (KSBN)

Arrival

Time 2026-04-19 03:30
Airport Orlando Executive Airport (KORL)
Time Latitude Longitude Altitude Speed Heading
2026-04-19 01:13 41.70234 -86.30779 772 ft 0 kts 268°
2026-04-19 01:28 41.70237 -86.30788 772 ft 2 kts 304°
2026-04-19 01:28 41.70248 -86.30776 772 ft 5 kts 75°
2026-04-19 01:29 41.70244 -86.30707 772 ft 9 kts 99°
2026-04-19 01:29 41.70254 -86.30640 772 ft 8 kts 43°
2026-04-19 01:29 41.70293 -86.30567 770 ft 14 kts 57°
2026-04-19 01:29 41.70317 -86.30433 769 ft 14 kts 88°
2026-04-19 01:30 41.70319 -86.30299 767 ft 15 kts 89°
2026-04-19 01:30 41.70322 -86.30151 763 ft 16 kts 88°
2026-04-19 01:30 41.70324 -86.30000 762 ft 16 kts 88°
2026-04-19 01:30 41.70331 -86.29902 762 ft 7 kts 64°
2026-04-19 01:31 41.70372 -86.29873 763 ft 8 kts
2026-04-19 01:31 41.70455 -86.29874 762 ft 14 kts 359°
2026-04-19 01:31 41.70481 -86.29904 761 ft 8 kts 269°
2026-04-19 01:31 41.70474 -86.30342 762 ft 97 kts 269°
2026-04-19 01:32 41.70460 -86.31481 1026 ft 129 kts 273°
2026-04-19 01:32 41.70441 -86.32736 1609 ft 140 kts 272°
2026-04-19 01:32 41.70421 -86.34071 2186 ft 149 kts 272°
2026-04-19 01:32 41.70396 -86.35520 2715 ft 157 kts 272°
2026-04-19 01:33 41.70375 -86.37059 3114 ft 179 kts 271°
2026-04-19 01:33 41.70365 -86.38900 3038 ft 215 kts 272°
2026-04-19 01:33 41.70228 -86.40900 2952 ft 226 kts 254°
2026-04-19 01:33 41.69270 -86.42752 3473 ft 247 kts 232°
2026-04-19 01:34 41.67874 -86.44050 4533 ft 256 kts 207°
2026-04-19 01:34 41.66070 -86.44406 5456 ft 271 kts 181°
2026-04-19 01:34 41.64190 -86.43989 6408 ft 276 kts 174°
2026-04-19 01:34 41.62291 -86.43487 7316 ft 280 kts 175°
2026-04-19 01:35 41.60369 -86.42987 8323 ft 283 kts 176°
2026-04-19 01:35 41.58428 -86.42491 9355 ft 285 kts 178°
2026-04-19 01:35 41.56465 -86.41991 10248 ft 290 kts 178°
2026-04-19 01:35 41.54399 -86.41474 10528 ft 315 kts 178°
2026-04-19 01:36 41.52150 -86.40908 10605 ft 343 kts 177°
2026-04-19 01:36 41.49782 -86.40280 11278 ft 345 kts 177°
2026-04-19 01:36 41.47474 -86.39666 12295 ft 339 kts 178°
2026-04-19 01:36 41.45166 -86.39087 13201 ft 336 kts 178°
2026-04-19 01:37 41.42871 -86.38513 14070 ft 334 kts 179°
2026-04-19 01:37 41.40594 -86.37929 14836 ft 333 kts 178°
2026-04-19 01:37 41.38323 -86.37346 15585 ft 332 kts 179°
2026-04-19 01:37 41.36058 -86.36770 16353 ft 331 kts 179°
2026-04-19 01:38 41.33801 -86.36197 17147 ft 330 kts 179°
2026-04-19 01:38 41.31548 -86.35623 17958 ft 329 kts 179°
2026-04-19 01:38 41.29296 -86.35050 18724 ft 329 kts 179°
2026-04-19 01:38 41.27030 -86.34477 19265 ft 334 kts 180°
2026-04-19 01:39 41.24733 -86.33897 19847 ft 338 kts 180°
2026-04-19 01:39 41.22409 -86.33306 20462 ft 342 kts 181°
2026-04-19 01:39 41.20053 -86.32708 21062 ft 347 kts 181°
2026-04-19 01:39 41.17672 -86.32106 21655 ft 351 kts 181°
2026-04-19 01:40 41.15259 -86.31496 22244 ft 355 kts 182°
2026-04-19 01:40 41.12814 -86.30877 22841 ft 359 kts 182°
2026-04-19 01:40 41.10340 -86.30251 23430 ft 364 kts 182°
2026-04-19 01:40 41.07839 -86.29620 23946 ft 368 kts 183°
2026-04-19 01:41 41.05313 -86.28982 24348 ft 373 kts 183°
2026-04-19 01:41 41.02776 -86.28344 24809 ft 377 kts 183°
2026-04-19 01:41 41.00188 -86.27688 25340 ft 379 kts 183°
2026-04-19 01:41 40.97591 -86.27033 25853 ft 382 kts 183°
2026-04-19 01:42 40.94968 -86.26375 26366 ft 384 kts 183°
2026-04-19 01:42 40.92325 -86.25710 26879 ft 387 kts 183°
2026-04-19 01:42 40.86987 -86.24369 27899 ft 393 kts 184°
2026-04-19 01:43 40.84283 -86.23691 28351 ft 396 kts 184°
2026-04-19 01:43 40.81564 -86.23011 28821 ft 400 kts 184°
2026-04-19 01:43 40.78859 -86.22334 29311 ft 402 kts 184°
2026-04-19 01:43 40.76094 -86.21640 29786 ft 405 kts 184°
2026-04-19 01:44 40.73311 -86.20945 30249 ft 408 kts 184°
2026-04-19 01:44 40.70509 -86.20247 30625 ft 411 kts 184°
2026-04-19 01:44 40.67687 -86.19543 31005 ft 414 kts 184°
2026-04-19 01:44 40.64857 -86.18833 31580 ft 412 kts 184°
2026-04-19 01:45 40.62046 -86.18127 32138 ft 411 kts 184°
2026-04-19 01:45 40.59235 -86.17432 32686 ft 409 kts 185°
2026-04-19 01:45 40.56475 -86.16748 33281 ft 407 kts 185°
2026-04-19 01:45 40.53693 -86.16055 33907 ft 406 kts 185°
2026-04-19 01:46 40.50916 -86.15366 34410 ft 405 kts 185°
2026-04-19 01:46 40.48136 -86.14680 34825 ft 407 kts 185°
2026-04-19 01:46 40.45355 -86.13992 35240 ft 408 kts 184°
2026-04-19 01:46 40.42561 -86.13298 35662 ft 409 kts 184°
2026-04-19 01:47 40.39762 -86.12604 36013 ft 410 kts 184°
2026-04-19 01:47 40.36956 -86.11911 36453 ft 411 kts 184°
2026-04-19 01:47 40.34145 -86.11219 36871 ft 412 kts 184°
2026-04-19 01:47 40.31321 -86.10522 37304 ft 414 kts 184°
2026-04-19 01:48 40.28483 -86.09821 37745 ft 415 kts 183°
2026-04-19 01:48 40.25635 -86.09119 38187 ft 417 kts 183°
2026-04-19 01:48 40.22783 -86.08418 38639 ft 418 kts 183°
2026-04-19 01:48 40.19924 -86.07715 39014 ft 419 kts 182°
2026-04-19 01:49 40.17052 -86.07009 39321 ft 421 kts 182°
2026-04-19 01:49 40.14159 -86.06300 39642 ft 424 kts 182°
2026-04-19 01:49 40.11259 -86.05588 39989 ft 425 kts 182°
2026-04-19 01:49 40.08342 -86.04872 40340 ft 427 kts 182°
2026-04-19 01:50 40.05411 -86.04155 40706 ft 429 kts 181°
2026-04-19 01:50 40.02474 -86.03437 41058 ft 430 kts 181°
2026-04-19 01:50 39.99558 -86.02724 41406 ft 432 kts 181°
2026-04-19 01:50 39.96596 -86.02000 41754 ft 433 kts 181°
2026-04-19 01:51 39.93625 -86.01275 42045 ft 435 kts 181°
2026-04-19 01:51 39.90646 -86.00549 42379 ft 437 kts 180°
2026-04-19 01:51 39.87654 -85.99820 42721 ft 438 kts 180°
2026-04-19 01:51 39.84650 -85.99089 43050 ft 439 kts 180°
2026-04-19 01:52 39.81646 -85.98358 43389 ft 441 kts 180°
2026-04-19 01:52 39.78622 -85.97624 43709 ft 442 kts 180°
2026-04-19 01:52 39.75597 -85.96890 44040 ft 443 kts 179°
2026-04-19 01:52 39.72561 -85.96153 44339 ft 444 kts 179°
2026-04-19 01:53 39.69551 -85.95424 44440 ft 445 kts 179°
2026-04-19 01:53 39.66501 -85.94686 44715 ft 446 kts 179°
2026-04-19 01:53 39.63440 -85.93947 44859 ft 451 kts 179°
2026-04-19 01:53 39.60327 -85.93200 45079 ft 458 kts 179°
2026-04-19 01:54 39.57165 -85.92437 45084 ft 465 kts 179°
2026-04-19 01:54 39.50703 -85.90875 45048 ft 479 kts 178°
2026-04-19 01:55 39.44100 -85.89285 45094 ft 486 kts 178°
2026-04-19 01:55 39.37443 -85.87683 45151 ft 486 kts 178°
2026-04-19 01:56 39.30782 -85.86089 45152 ft 487 kts 178°
2026-04-19 01:56 39.24123 -85.84494 45142 ft 486 kts 178°
2026-04-19 01:57 39.17519 -85.82920 45139 ft 486 kts 178°
2026-04-19 01:57 39.10868 -85.81333 45123 ft 486 kts 178°
2026-04-19 01:58 39.04202 -85.79749 45075 ft 486 kts 178°
2026-04-19 01:58 38.97579 -85.78176 45109 ft 484 kts 179°
2026-04-19 01:59 38.90940 -85.76604 45124 ft 485 kts 179°
2026-04-19 01:59 38.84353 -85.75046 45130 ft 485 kts 179°
2026-04-19 02:00 38.77723 -85.73481 45128 ft 485 kts 179°
2026-04-19 02:00 38.71090 -85.71919 45127 ft 484 kts 179°
2026-04-19 02:01 38.64453 -85.70359 45108 ft 484 kts 179°
2026-04-19 02:01 38.57822 -85.68802 45106 ft 484 kts 179°
2026-04-19 02:02 38.51182 -85.67249 45133 ft 486 kts 179°
2026-04-19 02:02 38.44540 -85.65693 45139 ft 485 kts 179°
2026-04-19 02:03 38.37945 -85.64155 45136 ft 485 kts 179°
2026-04-19 02:03 38.31308 -85.62608 45154 ft 485 kts 179°
2026-04-19 02:04 38.24661 -85.61064 45153 ft 485 kts 179°
2026-04-19 02:04 38.18020 -85.59522 45148 ft 485 kts 179°
2026-04-19 02:05 38.11399 -85.57581 45138 ft 497 kts 170°
2026-04-19 02:05 38.08172 -85.55852 45143 ft 509 kts 163°
2026-04-19 02:05 38.05105 -85.53604 45148 ft 518 kts 157°
2026-04-19 02:06 37.98984 -85.48752 45148 ft 517 kts 158°
2026-04-19 02:06 37.92859 -85.43935 45151 ft 518 kts 158°
2026-04-19 02:07 37.86718 -85.39095 45143 ft 522 kts 158°
2026-04-19 02:07 37.80541 -85.34246 45144 ft 523 kts 157°
2026-04-19 02:08 37.74399 -85.29426 45133 ft 522 kts 158°
2026-04-19 02:08 37.68217 -85.24594 45142 ft 522 kts 158°
2026-04-19 02:09 37.62033 -85.19762 45156 ft 522 kts 158°
2026-04-19 02:09 37.55838 -85.14938 45162 ft 523 kts 158°
2026-04-19 02:10 37.49643 -85.10116 45164 ft 523 kts 158°
2026-04-19 02:10 37.43440 -85.05304 45159 ft 523 kts 158°
2026-04-19 02:11 37.37304 -85.00546 45154 ft 520 kts 158°
2026-04-19 02:11 37.31145 -84.95789 45142 ft 520 kts 158°
2026-04-19 02:12 37.24978 -84.91027 45110 ft 520 kts 158°
2026-04-19 02:12 37.19844 -84.87074 45105 ft 520 kts 158°
2026-04-19 02:13 37.12652 -84.81546 45102 ft 522 kts 158°
2026-04-19 02:13 37.07486 -84.77577 45096 ft 521 kts 158°
2026-04-19 02:14 37.01347 -84.72881 45102 ft 520 kts 158°
2026-04-19 02:14 36.95173 -84.68157 45103 ft 520 kts 158°
2026-04-19 02:15 36.88966 -84.63426 45093 ft 523 kts 158°
2026-04-19 02:15 36.82745 -84.58685 45136 ft 526 kts 158°
2026-04-19 02:16 36.76493 -84.53933 45113 ft 526 kts 158°
2026-04-19 02:16 36.70247 -84.49195 45059 ft 525 kts 158°
2026-04-19 02:17 36.64040 -84.44496 45050 ft 526 kts 158°
2026-04-19 02:17 36.60855 -84.42337 45005 ft 515 kts 165°
2026-04-19 02:17 36.57534 -84.40808 45030 ft 505 kts 174°
2026-04-19 02:18 36.50743 -84.39041 45048 ft 492 kts 182°
2026-04-19 02:18 36.43962 -84.37832 45051 ft 497 kts 179°
2026-04-19 02:19 36.37175 -84.35939 45031 ft 498 kts 178°
2026-04-19 02:19 36.30379 -84.34434 45020 ft 498 kts 180°
2026-04-19 02:20 36.20194 -84.31887 45023 ft 498 kts 180°
2026-04-19 02:20 36.13390 -84.30302 45005 ft 497 kts 179°
2026-04-19 02:21 36.06552 -84.28624 44982 ft 505 kts 179°
2026-04-19 02:21 35.99613 -84.26972 44984 ft 507 kts 179°
2026-04-19 02:22 35.92684 -84.25297 44995 ft 507 kts 179°
2026-04-19 02:22 35.85754 -84.23646 45006 ft 507 kts 179°
2026-04-19 02:23 35.78824 -84.21984 45002 ft 507 kts 179°
2026-04-19 02:23 35.71938 -84.20344 45000 ft 507 kts 179°
2026-04-19 02:24 35.65008 -84.18691 44998 ft 507 kts 179°
2026-04-19 02:24 35.58089 -84.17046 44993 ft 507 kts 179°
2026-04-19 02:25 35.51143 -84.15397 44999 ft 507 kts 179°
2026-04-19 02:25 35.44214 -84.13756 45003 ft 507 kts 179°
2026-04-19 02:26 35.37313 -84.12123 45011 ft 507 kts 179°
2026-04-19 02:26 35.30398 -84.10488 45014 ft 505 kts 178°
2026-04-19 02:27 35.23486 -84.08862 45029 ft 505 kts 178°
2026-04-19 02:27 35.16581 -84.07235 45038 ft 505 kts 178°
2026-04-19 02:28 35.09667 -84.05612 44994 ft 505 kts 178°
2026-04-19 02:28 35.02799 -84.03998 45048 ft 501 kts 178°
2026-04-19 02:29 34.95939 -84.02397 45065 ft 502 kts 178°
2026-04-19 02:29 34.89081 -84.00790 45069 ft 502 kts 178°
2026-04-19 02:30 34.82277 -83.99204 45072 ft 498 kts 178°
2026-04-19 02:30 34.75483 -83.97622 45072 ft 497 kts 178°
2026-04-19 02:31 34.68700 -83.96044 45051 ft 496 kts 178°
2026-04-19 02:31 34.61893 -83.94465 45043 ft 498 kts 178°
2026-04-19 02:32 34.55103 -83.92889 45013 ft 498 kts 178°
2026-04-19 02:32 34.48262 -83.91309 45004 ft 500 kts 178°
2026-04-19 02:33 34.41424 -83.89727 45041 ft 501 kts 178°
2026-04-19 02:33 34.34573 -83.88148 45055 ft 500 kts 178°
2026-04-19 02:34 34.27711 -83.86570 45050 ft 505 kts 178°
2026-04-19 02:34 34.20830 -83.84985 45053 ft 507 kts 178°
2026-04-19 02:35 34.13889 -83.83394 45052 ft 507 kts 178°
2026-04-19 02:35 34.06953 -83.81805 45026 ft 507 kts 178°
2026-04-19 02:36 33.99980 -83.80214 45057 ft 512 kts 178°
2026-04-19 02:36 33.92990 -83.78612 45057 ft 511 kts 178°
2026-04-19 02:37 33.85992 -83.77020 45056 ft 512 kts 178°
2026-04-19 02:37 33.78997 -83.75427 45010 ft 512 kts 178°
2026-04-19 02:38 33.71951 -83.73829 45040 ft 516 kts 177°
2026-04-19 02:38 33.64896 -83.72225 45044 ft 516 kts 177°
2026-04-19 02:39 33.57844 -83.70631 45041 ft 516 kts 177°
2026-04-19 02:39 33.50795 -83.69036 45018 ft 515 kts 177°
2026-04-19 02:40 33.43803 -83.67459 45023 ft 515 kts 177°
2026-04-19 02:40 33.36753 -83.65870 45022 ft 515 kts 177°
2026-04-19 02:41 33.29706 -83.64286 45016 ft 514 kts 177°
2026-04-19 02:41 33.22673 -83.62706 45018 ft 514 kts 177°
2026-04-19 02:42 33.15632 -83.61128 45015 ft 515 kts 177°
2026-04-19 02:42 33.08627 -83.59560 45010 ft 514 kts 177°
2026-04-19 02:43 33.01573 -83.57984 45016 ft 514 kts 177°
2026-04-19 02:43 32.94562 -83.56417 45017 ft 509 kts 177°
2026-04-19 02:44 32.87580 -83.54869 45025 ft 510 kts 177°
2026-04-19 02:44 32.80586 -83.53308 45019 ft 510 kts 177°
2026-04-19 02:45 32.73612 -83.51765 45033 ft 513 kts 177°
2026-04-19 02:45 32.66615 -83.50207 45031 ft 511 kts 177°
2026-04-19 02:46 32.59620 -83.48665 45025 ft 511 kts 177°
2026-04-19 02:46 32.52625 -83.47116 45018 ft 511 kts 177°
2026-04-19 02:47 32.45620 -83.45573 45016 ft 511 kts 177°
2026-04-19 02:47 32.38660 -83.44037 45012 ft 509 kts 178°
2026-04-19 02:48 32.31741 -83.42518 45027 ft 509 kts 178°
2026-04-19 02:48 32.24779 -83.40988 45035 ft 509 kts 178°
2026-04-19 02:49 32.17816 -83.39463 45038 ft 509 kts 178°
2026-04-19 02:49 32.10851 -83.37938 45038 ft 509 kts 178°
2026-04-19 02:50 32.03928 -83.36424 45031 ft 509 kts 178°
2026-04-19 02:51 31.93474 -83.34144 45036 ft 509 kts 178°
2026-04-19 02:51 31.86507 -83.32629 45045 ft 512 kts 178°
2026-04-19 02:52 31.79485 -83.31099 45066 ft 512 kts 178°
2026-04-19 02:52 31.72476 -83.29580 45068 ft 512 kts 178°
2026-04-19 02:53 31.65468 -83.28060 45068 ft 512 kts 178°
2026-04-19 02:53 31.58453 -83.26545 45015 ft 517 kts 178°
2026-04-19 02:54 31.51377 -83.25012 45025 ft 516 kts 178°
2026-04-19 02:54 31.44307 -83.23490 45034 ft 516 kts 178°
2026-04-19 02:55 31.37237 -83.21965 45032 ft 516 kts 178°
2026-04-19 02:55 31.30154 -83.20444 45023 ft 517 kts 178°
2026-04-19 02:56 31.23077 -83.18923 45027 ft 517 kts 178°
2026-04-19 02:56 31.16002 -83.17407 45031 ft 517 kts 178°
2026-04-19 02:57 31.08970 -83.15901 45035 ft 517 kts 178°
2026-04-19 02:57 31.01872 -83.14385 45035 ft 519 kts 178°
2026-04-19 02:58 30.94768 -83.12867 45033 ft 519 kts 178°
2026-04-19 02:58 30.87647 -83.11351 45045 ft 519 kts 178°
2026-04-19 02:59 30.80627 -83.09079 45040 ft 535 kts 163°
2026-04-19 02:59 30.75219 -83.05430 45050 ft 548 kts 148°
2026-04-19 03:00 30.69487 -82.99473 45109 ft 555 kts 140°
2026-04-19 03:00 30.63755 -82.93505 45056 ft 552 kts 145°
2026-04-19 03:01 30.57954 -82.87640 45062 ft 554 kts 142°
2026-04-19 03:01 30.52264 -82.81704 45056 ft 552 kts 144°
2026-04-19 03:02 30.46463 -82.75851 45056 ft 554 kts 143°
2026-04-19 03:02 30.40717 -82.69905 45055 ft 553 kts 143°
2026-04-19 03:03 30.34968 -82.64085 44188 ft 542 kts 143°
2026-04-19 03:03 30.32173 -82.61213 43492 ft 532 kts 143°
2026-04-19 03:03 30.29423 -82.58397 42800 ft 523 kts 143°
2026-04-19 03:03 30.26708 -82.55646 42123 ft 514 kts 144°
2026-04-19 03:04 30.24018 -82.52923 41458 ft 511 kts 144°
2026-04-19 03:04 30.21389 -82.50248 40833 ft 511 kts 144°
2026-04-19 03:04 30.18710 -82.47521 40128 ft 515 kts 144°
2026-04-19 03:04 30.16005 -82.44778 39451 ft 519 kts 144°
2026-04-19 03:05 30.13150 -82.42243 38752 ft 516 kts 153°
2026-04-19 03:05 30.10041 -82.40244 38030 ft 507 kts 162°
2026-04-19 03:05 30.06775 -82.38836 37371 ft 498 kts 171°
2026-04-19 03:05 30.03412 -82.37914 36732 ft 495 kts 176°
2026-04-19 03:06 30.00034 -82.37204 36099 ft 494 kts 178°
2026-04-19 03:06 29.96645 -82.36459 35439 ft 498 kts 175°
2026-04-19 03:06 29.93265 -82.35458 34785 ft 502 kts 172°
2026-04-19 03:06 29.89896 -82.34382 34132 ft 502 kts 173°
2026-04-19 03:07 29.86507 -82.33462 33440 ft 499 kts 175°
2026-04-19 03:07 29.83110 -82.32624 32786 ft 498 kts 174°
2026-04-19 03:07 29.79737 -82.31702 32130 ft 498 kts 172°
2026-04-19 03:07 29.76374 -82.30787 31470 ft 493 kts 174°
2026-04-19 03:08 29.73014 -82.29994 30822 ft 494 kts 173°
2026-04-19 03:08 29.69671 -82.29114 30171 ft 489 kts 172°
2026-04-19 03:08 29.66386 -82.28264 29491 ft 479 kts 172°
2026-04-19 03:08 29.63134 -82.27494 28858 ft 475 kts 173°
2026-04-19 03:09 29.59902 -82.26730 28217 ft 470 kts 172°
2026-04-19 03:09 29.56706 -82.25930 27610 ft 469 kts 172°
2026-04-19 03:09 29.53538 -82.25129 26992 ft 463 kts 172°
2026-04-19 03:09 29.50440 -82.24374 26362 ft 458 kts 172°
2026-04-19 03:10 29.47336 -82.23626 25763 ft 453 kts 172°
2026-04-19 03:10 29.44271 -82.22873 25175 ft 448 kts 172°
2026-04-19 03:10 29.41235 -82.22120 24586 ft 444 kts 172°
2026-04-19 03:10 29.38228 -82.21384 24010 ft 439 kts 172°
2026-04-19 03:11 29.35251 -82.20660 23385 ft 434 kts 172°
2026-04-19 03:11 29.32315 -82.19941 22814 ft 430 kts 171°
2026-04-19 03:11 29.29401 -82.19196 22246 ft 427 kts 169°
2026-04-19 03:11 29.26605 -82.18000 21695 ft 427 kts 160°
2026-04-19 03:12 29.23880 -82.16658 21135 ft 424 kts 160°
2026-04-19 03:12 29.21184 -82.15342 20579 ft 420 kts 160°
2026-04-19 03:12 29.18491 -82.14083 20027 ft 415 kts 161°
2026-04-19 03:12 29.15829 -82.12839 19481 ft 412 kts 161°
2026-04-19 03:13 29.13225 -82.11593 18945 ft 408 kts 160°
2026-04-19 03:13 29.10620 -82.10342 18404 ft 405 kts 160°
2026-04-19 03:13 29.08029 -82.09117 17835 ft 401 kts 160°
2026-04-19 03:13 29.05453 -82.07903 17213 ft 398 kts 160°
2026-04-19 03:14 29.02903 -82.06691 16679 ft 396 kts 160°
2026-04-19 03:14 29.00331 -82.05463 16140 ft 393 kts 159°
2026-04-19 03:14 28.98003 -82.03846 15573 ft 395 kts 141°
2026-04-19 03:14 28.96056 -82.01633 15095 ft 394 kts 135°
2026-04-19 03:15 28.94174 -81.99383 14586 ft 391 kts 134°
2026-04-19 03:15 28.92296 -81.97159 14068 ft 385 kts 135°
2026-04-19 03:15 28.90476 -81.95040 13535 ft 364 kts 135°
2026-04-19 03:15 28.88777 -81.93058 13063 ft 344 kts 135°
2026-04-19 03:16 28.87061 -81.91209 12609 ft 327 kts 140°
2026-04-19 03:16 28.85374 -81.89522 12225 ft 320 kts 139°
2026-04-19 03:16 28.83751 -81.87843 11780 ft 316 kts 138°
2026-04-19 03:16 28.82234 -81.86047 11327 ft 315 kts 123°
2026-04-19 03:17 28.81572 -81.83734 10924 ft 302 kts 92°
2026-04-19 03:17 28.81627 -81.81386 11009 ft 303 kts 84°
2026-04-19 03:17 28.81796 -81.78955 10739 ft 307 kts 83°
2026-04-19 03:17 28.81979 -81.76533 10420 ft 305 kts 83°
2026-04-19 03:18 28.82005 -81.74119 10082 ft 305 kts 91°
2026-04-19 03:18 28.81864 -81.71709 9716 ft 303 kts 93°
2026-04-19 03:18 28.81696 -81.69324 9337 ft 300 kts 94°
2026-04-19 03:18 28.81536 -81.66987 8959 ft 297 kts 94°
2026-04-19 03:19 28.81387 -81.64642 8580 ft 294 kts 94°
2026-04-19 03:19 28.81254 -81.62337 8205 ft 290 kts 93°
2026-04-19 03:19 28.81133 -81.60043 7836 ft 289 kts 93°
2026-04-19 03:19 28.81019 -81.57756 7471 ft 287 kts 93°
2026-04-19 03:20 28.80913 -81.55493 7105 ft 285 kts 93°
2026-04-19 03:20 28.80813 -81.53249 6750 ft 282 kts 93°
2026-04-19 03:20 28.80719 -81.51019 6398 ft 281 kts 93°
2026-04-19 03:20 28.80630 -81.48833 6032 ft 279 kts 93°
2026-04-19 03:21 28.80542 -81.46629 5664 ft 277 kts 93°
2026-04-19 03:21 28.80449 -81.44437 5298 ft 276 kts 93°
2026-04-19 03:21 28.80353 -81.42250 4933 ft 275 kts 93°
2026-04-19 03:21 28.80252 -81.40081 4565 ft 273 kts 93°
2026-04-19 03:22 28.80143 -81.37927 4196 ft 269 kts 93°
2026-04-19 03:22 28.80032 -81.35846 3980 ft 251 kts 93°
2026-04-19 03:22 28.79925 -81.33969 3976 ft 229 kts 93°
2026-04-19 03:22 28.79819 -81.32153 3978 ft 228 kts 93°
2026-04-19 03:23 28.79716 -81.30367 3979 ft 227 kts 93°
2026-04-19 03:23 28.79614 -81.28565 3983 ft 228 kts 93°
2026-04-19 03:23 28.79328 -81.26790 3918 ft 231 kts 117°
2026-04-19 03:23 28.78264 -81.25465 3975 ft 227 kts 141°
2026-04-19 03:24 28.77015 -81.24359 3998 ft 229 kts 143°
2026-04-19 03:24 28.75760 -81.23245 3997 ft 229 kts 143°
2026-04-19 03:24 28.74507 -81.22124 3955 ft 230 kts 143°
2026-04-19 03:24 28.73250 -81.20998 3717 ft 228 kts 143°
2026-04-19 03:25 28.72009 -81.19897 3473 ft 225 kts 143°
2026-04-19 03:25 28.70781 -81.18805 3218 ft 222 kts 143°
2026-04-19 03:25 28.69565 -81.17728 2970 ft 219 kts 144°
2026-04-19 03:25 28.68154 -81.17218 2584 ft 216 kts 182°
2026-04-19 03:26 28.66723 -81.17661 2305 ft 213 kts 201°
2026-04-19 03:26 28.65379 -81.18337 2105 ft 213 kts 203°
2026-04-19 03:26 28.64027 -81.19035 1994 ft 211 kts 202°
2026-04-19 03:26 28.62740 -81.19711 1999 ft 192 kts 203°
2026-04-19 03:27 28.61596 -81.20320 1975 ft 175 kts 202°
2026-04-19 03:27 28.60546 -81.20990 1975 ft 174 kts 212°
2026-04-19 03:27 28.59567 -81.21805 1986 ft 174 kts 213°
2026-04-19 03:27 28.58661 -81.22741 1854 ft 181 kts 228°
2026-04-19 03:28 28.58065 -81.23998 1643 ft 177 kts 243°
2026-04-19 03:28 28.57605 -81.25179 1399 ft 149 kts 243°
2026-04-19 03:28 28.57222 -81.26195 1223 ft 134 kts 243°
2026-04-19 03:28 28.56868 -81.27148 1065 ft 132 kts 245°
2026-04-19 03:29 28.56507 -81.28093 918 ft 129 kts 242°
2026-04-19 03:29 28.56145 -81.29023 767 ft 128 kts 245°
2026-04-19 03:29 28.55806 -81.29952 612 ft 126 kts 245°
2026-04-19 03:29 28.55457 -81.30849 422 ft 124 kts 243°
2026-04-19 03:30 28.55115 -81.31745 240 ft 122 kts 244°
2026-04-19 03:30 28.54789 -81.32600 117 ft 110 kts 244°
2026-04-19 03:30 28.54544 -81.33240 117 ft 61 kts 248°
2026-04-19 03:30 28.54420 -81.33569 109 ft 40 kts 247°
2026-04-19 03:31 28.54342 -81.33772 109 ft 16 kts 248°
2026-04-19 03:31 28.54312 -81.33887 108 ft 12 kts 278°
2026-04-19 03:31 28.54362 -81.33944 108 ft 11 kts
2026-04-19 03:31 28.54420 -81.33902 110 ft 10 kts 62°
2026-04-19 03:32 28.54457 -81.33840 109 ft 10 kts 43°
2026-04-19 03:32 28.54517 -81.33786 111 ft 12 kts 40°
2026-04-19 03:32 28.54596 -81.33705 113 ft 16 kts 41°
2026-04-19 03:32 28.54657 -81.33693 115 ft 9 kts 310°
2026-04-19 03:33 28.54703 -81.33755 115 ft 12 kts 311°
2026-04-19 03:33 28.54769 -81.33802 114 ft 11 kts 344°
2026-04-19 03:33 28.54778 -81.33835 116 ft 3 kts 274°
2026-04-19 03:33 28.54795 -81.33839 118 ft 2 kts 14°
2026-04-19 03:34 28.54804 -81.33832 116 ft 0 kts 34°